H1 CPF 2 NER 2020 11 15 9 320 01 glonass132 H2 1401201 9132 39620 2020 11 15 0 0 0 2020 11 18 23 45 0 900 1 1 0 0 0 1 H9 10 0 59168 0.00000 0 21971152.916 -12799896.693 1727243.416 10 0 59168 900.00000 0 21514269.302 -12744784.698 4939221.632 10 0 59168 1800.00000 0 20755729.857 -12416146.857 8055035.325 10 0 59168 2700.00000 0 19745228.045 -11782684.799 11014078.659 10 0 59168 3600.00000 0 18539637.831 -10824737.071 13758853.090 10 0 59168 4500.00000 0 17200538.109 -9535346.605 16236086.850 10 0 59168 5400.00000 0 15791562.116 -7920797.191 18397766.639 10 0 59168 6300.00000 0 14375684.389 -6000596.461 20202061.766 10 0 59168 7200.00000 0 13012559.889 -3806906.645 21614123.500 10 0 59168 8100.00000 0 11756026.769 -1383447.395 22606745.389 10 0 59168 9000.00000 0 10651876.781 1216083.127 23160873.293 10 0 59168 9900.00000 0 9735985.284 3930002.919 23265956.835 10 0 59168 10800.00000 0 9032877.332 6690973.921 22920137.153 10 0 59168 11700.00000 0 8554787.882 9428566.865 22130268.739 10 0 59168 12600.00000 0 8301253.493 12071957.739 20911776.091 10 0 59168 13500.00000 0 8259250.758 14552645.534 19288348.679 10 0 59168 14400.00000 0 8403874.291 16807080.260 17291480.363 10 0 59168 15300.00000 0 8699524.919 18779093.947 14959862.042 10 0 59168 16200.00000 0 9101557.821 20422035.508 12338638.733 10 0 59168 17100.00000 0 9558321.484 21700522.384 9478544.560 10 0 59168 18000.00000 0 10013502.217 22591737.321 6434931.426 10 0 59168 18900.00000 0 10408676.241 23086217.258 3266709.030 10 0 59168 19800.00000 0 10685962.651 23188101.956 35215.620 10 0 59168 20700.00000 0 10790666.061 22914832.090 -3196959.523 10 0 59168 21600.00000 0 10673797.908 22296309.297 -6367179.922 10 0 59168 22500.00000 0 10294370.026 21373552.847 -9413969.358 10 0 59168 23400.00000 0 9621363.347 20196908.572 -12278199.854 10 0 59168 24300.00000 0 8635287.673 18823884.469 -14904237.398 10 0 59168 25200.00000 0 7329265.345 17316702.988 -17241023.221 10 0 59168 26100.00000 0 5709591.255 15739672.142 -19243069.464 10 0 59168 27000.00000 0 3795743.382 14156485.260 -20871349.674 10 0 59168 27900.00000 0 1619840.852 12627562.420 -22094066.487 10 0 59168 28800.00000 0 -774430.275 11207545.116 -22887281.005 10 0 59168 29700.00000 0 -3333381.012 9943049.454 -23235391.056 10 0 59168 30600.00000 0 -5995310.131 8870772.536 -23131448.281 10 0 59168 31500.00000 0 -8692840.141 8016032.087 -22577306.974 10 0 59168 32400.00000 0 -11355502.466 7391801.213 -21583600.862 10 0 59168 33300.00000 0 -13912464.799 6998279.469 -20169547.232 10 0 59168 34200.00000 0 -16295287.051 6823018.724 -18362581.313 10 0 59168 35100.00000 0 -18440590.726 6841598.796 -16197827.177 10 0 59168 36000.00000 0 -20292529.687 7018824.296 -13717414.860 10 0 59168 36900.00000 0 -21804958.213 7310391.759 -10969656.774 10 0 59168 37800.00000 0 -22943204.845 7664955.791 -8008099.564 10 0 59168 38700.00000 0 -23685377.146 8026505.624 -4890470.393 10 0 59168 39600.00000 0 -24023142.293 8336949.930 -1677539.192 10 0 59168 40500.00000 0 -23961950.975 8538798.703 1568079.667 10 0 59168 41400.00000 0 -23520695.938 8577826.709 4783161.495 10 0 59168 42300.00000 0 -22730820.746 8405604.039 7905115.473 10 0 59168 43200.00000 0 -21634917.960 7981785.059 10873213.274 10 0 59168 44100.00000 0 -20284877.619 7276057.847 13629776.993 10 0 59168 45000.00000 0 -18739665.876 6269671.035 16121302.412 10 0 59168 45900.00000 0 -17062828.942 4956473.375 18299495.505 10 0 59168 46800.00000 0 -15319828.572 3343422.319 20122202.282 10 0 59168 47700.00000 0 -13575321.707 1450540.628 21554214.650 10 0 59168 48600.00000 0 -11890498.454 -689676.739 22567937.862 10 0 59168 49500.00000 0 -10320589.284 -3033380.266 23143908.145 10 0 59168 50400.00000 0 -8912644.543 -5526961.122 23271152.086 10 0 59168 51300.00000 0 -7703677.365 -8109057.640 22947382.490 10 0 59168 52200.00000 0 -6719245.448 -10712890.087 22179028.364 10 0 59168 53100.00000 0 -5972528.794 -13268827.436 20981099.577 10 0 59168 54000.00000 0 -5463939.742 -15707080.854 19376889.599 10 0 59168 54900.00000 0 -5181279.715 -17960413.581 17397522.309 10 0 59168 55800.00000 0 -5100434.655 -19966756.228 15081351.573 10 0 59168 56700.00000 0 -5186579.013 -21671620.592 12473224.635 10 0 59168 57600.00000 0 -5395837.294 -23030213.116 9623622.742 10 0 59168 58500.00000 0 -5677333.397 -24009161.271 6587694.649 10 0 59168 59400.00000 0 -5975541.884 -24587781.888 3424200.582 10 0 59168 60300.00000 0 -6232842.729 -24758839.019 194385.964 10 0 59168 61200.00000 0 -6392172.516 -24528759.777 -3039194.184 10 0 59168 62100.00000 0 -6399660.697 -23917298.868 -6213878.249 10 0 59168 63000.00000 0 -6207139.885 -22956665.266 -9268105.794 10 0 59168 63900.00000 0 -5774424.073 -21690146.781 -12142606.980 10 0 59168 64800.00000 0 -5071257.958 -20170289.235 -14781550.858 10 0 59168 65700.00000 0 -4078853.996 -18456705.562 -17133630.303 10 0 59168 66600.00000 0 -2790950.821 -16613605.773 -19153062.350 10 0 59168 67500.00000 0 -1214346.375 -14707150.545 -20800484.310 10 0 59168 68400.00000 0 631119.036 -12802738.713 -22043727.898 10 0 59168 69300.00000 0 2713131.572 -10962342.032 -22858455.768 10 0 59168 70200.00000 0 4988003.280 -9241998.687 -23228647.512 10 0 59168 71100.00000 0 7402258.542 -7689570.672 -23146924.903 10 0 59168 72000.00000 0 9894643.198 -6342859.279 -22614709.149 10 0 59168 72900.00000 0 12398474.058 -5228158.091 -21642206.182 10 0 59168 73800.00000 0 14844231.802 -4359304.516 -20248219.217 10 0 59168 74700.00000 0 17162289.403 -3737270.058 -18459791.302 10 0 59168 75600.00000 0 19285662.124 -3350306.657 -16311683.998 10 0 59168 76500.00000 0 21152663.628 -3174642.784 -13845701.693 10 0 59168 77400.00000 0 22709356.240 -3175699.492 -11109874.505 10 0 59168 78300.00000 0 23911691.793 -3309774.209 -8157515.778 10 0 59168 79200.00000 0 24727252.412 -3526119.847 -5046173.052 10 0 59168 80100.00000 0 25136517.477 -3769329.706 -1836493.916 10 0 59168 81000.00000 0 25133603.266 -3981925.340 1408969.867 10 0 59168 81900.00000 0 24726444.433 -4107035.828 4626995.258 10 0 59168 82800.00000 0 23936410.397 -4091053.059 7754932.178 10 0 59168 83700.00000 0 22797374.011 -3886148.861 10731933.405 10 0 59168 84600.00000 0 21354273.280 -3452546.076 13500145.049 10 0 59168 85500.00000 0 19661228.317 -2760446.610 16005833.488 10 0 59169 0.00000 0 17779294.413 -1791534.636 18200426.589 10 0 59169 900.00000 0 15773946.863 -539990.992 20041449.393 10 0 59169 1800.00000 0 13712404.034 987022.242 21493336.230 10 0 59169 2700.00000 0 11660901.393 2769429.135 22528105.414 10 0 59169 3600.00000 0 9682029.605 4774853.750 23125884.473 10 0 59169 4500.00000 0 7832247.547 6959755.815 23275277.440 10 0 59169 5400.00000 0 6159672.150 9271040.105 22973568.822 10 0 59169 6300.00000 0 4702235.286 11648072.901 22226761.722 10 0 59169 7200.00000 0 3486282.324 14025022.095 21049450.537 10 0 59169 8100.00000 0 2525668.422 16333424.626 19464531.489 10 0 59169 9000.00000 0 1821388.001 18504875.805 17502756.889 10 0 59169 9900.00000 0 1361751.039 20473730.113 15202141.665 10 0 59169 10800.00000 0 1123097.267 22179702.728 12607233.131 10 0 59169 11700.00000 0 1071017.373 23570264.960 9768257.272 10 0 59169 12600.00000 0 1162029.542 24602734.982 6740157.115 10 0 59169 13500.00000 0 1345640.820 25245977.646 3581540.668 10 0 59169 14400.00000 0 1566706.872 25481642.919 353557.656 10 0 59169 15300.00000 0 1767991.223 25304891.280 -2881274.100 10 0 59169 16200.00000 0 1892816.526 24724575.426 -6060270.788 10 0 59169 17100.00000 0 1887696.345 23762869.990 -9121790.611 10 0 59169 18000.00000 0 1704836.424 22454363.819 -12006424.570 10 0 59169 18900.00000 0 1304399.525 20844651.663 -14658147.267 10 0 59169 19800.00000 0 656437.444 18988483.026 -17025405.457 10 0 59169 20700.00000 0 -257592.509 16947544.517 -19062123.031 10 0 59169 21600.00000 0 -1443792.214 14787967.436 -20728602.756 10 0 59169 22500.00000 0 -2895314.335 12577664.006 -21992306.845 10 0 59169 23400.00000 0 -4592404.494 10383603.068 -22828500.663 10 0 59169 24300.00000 0 -6502994.777 8269138.756 -23220746.443 10 0 59169 25200.00000 0 -8583826.123 6291503.693 -23161236.657 10 0 59169 26100.00000 0 -10782054.775 4499571.657 -22650959.653 10 0 59169 27000.00000 0 -13037277.387 2931983.501 -21699693.412 10 0 59169 27900.00000 0 -15283891.469 1615715.013 -20325826.513 10 0 59169 28800.00000 0 -17453693.149 565147.023 -18556008.868 10 0 59169 29700.00000 0 -19478603.780 -218323.187 -16424638.193 10 0 59169 30600.00000 0 -21293410.991 -746113.011 -13973191.571 10 0 59169 31500.00000 0 -22838408.481 -1041735.736 -11249414.913 10 0 59169 32400.00000 0 -24061822.927 -1139563.024 -8306386.145 10 0 59169 33300.00000 0 -24921925.017 -1083122.156 -5201470.907 10 0 59169 34200.00000 0 -25388734.877 -923001.558 -1995192.039 10 0 59169 35100.00000 0 -25445249.539 -714455.143 1249963.851 10 0 59169 36000.00000 0 -25088140.489 -514808.930 4470778.048 10 0 59169 36900.00000 0 -24327892.189 -380781.794 7604543.986 10 0 59169 37800.00000 0 -23188376.469 -365835.736 10590298.421 10 0 59169 38700.00000 0 -21705881.850 -517669.419 13370014.360 10 0 59169 39600.00000 0 -19927640.064 -875962.151 15889731.626 10 0 59169 40500.00000 0 -17909913.189 -1470464.334 18100602.749 10 0 59169 41400.00000 0 -15715723.020 -2319515.183 19959834.095 10 0 59169 42300.00000 0 -13412318.939 -3429049.934 21431504.586 10 0 59169 43200.00000 0 -11068490.749 -4792137.860 22487247.331 10 0 59169 44100.00000 0 -8751838.655 -6389069.877 23106782.413 10 0 59169 45000.00000 0 -6526113.665 -8187991.530 23278292.125 10 0 59169 45900.00000 0 -4448737.882 -10146054.513 22998633.058 10 0 59169 46800.00000 0 -2568606.086 -12211038.609 22273382.391 10 0 59169 47700.00000 0 -924257.986 -14323376.693 21116718.660 10 0 59169 48600.00000 0 457505.228 -16418499.098 19551140.128 10 0 59169 49500.00000 0 1562504.802 -18429400.771 17607026.510 10 0 59169 50400.00000 0 2389534.102 -20289325.518 15322052.488 10 0 59169 51300.00000 0 2950161.345 -21934456.931 12740463.857 10 0 59169 52200.00000 0 3267995.065 -23306505.266 9912229.496 10 0 59169 53100.00000 0 3377443.904 -24355083.498 6892084.634 10 0 59169 54000.00000 0 3322023.242 -25039774.371 3738482.793 10 0 59169 54900.00000 0 3152279.832 -25331802.592 512475.566 10 0 59169 55800.00000 0 2923421.458 -25215242.343 -2723458.995 10 0 59169 56700.00000 0 2692751.120 -24687709.266 -5906617.580 10 0 59169 57600.00000 0 2517013.508 -23760507.189 -8975279.817 10 0 59169 58500.00000 0 2449765.525 -22458222.352 -11869900.411 10 0 59169 59400.00000 0 2538881.864 -20817780.813 -14534262.404 10 0 59169 60300.00000 0 2824301.394 -18887006.971 -16916569.258 10 0 59169 61200.00000 0 3336110.275 -16722742.112 -18970454.431 10 0 59169 62100.00000 0 4093043.954 -14388600.246 -20655888.605 10 0 59169 63000.00000 0 5101472.905 -11952453.801 -21939966.639 10 0 59169 63900.00000 0 6354916.802 -9483753.311 -22797558.357 10 0 59169 64800.00000 0 7834109.872 -7050792.303 -23211809.947 10 0 59169 65700.00000 0 9507616.982 -4718031.131 -23174485.462 10 0 59169 66600.00000 0 11332976.815 -2543591.419 -22686140.850 10 0 59169 67500.00000 0 13258326.160 -577025.730 -21756126.218 10 0 59169 68400.00000 0 15224438.785 1142544.134 -20402415.236 10 0 59169 69300.00000 0 17167094.409 2587842.137 -18651264.064 10 0 59169 70200.00000 0 19019678.943 3744346.930 -16536705.615 10 0 59169 71100.00000 0 20715906.837 4610656.725 -14099888.349 10 0 59169 72000.00000 0 22192550.630 5198295.119 -11388272.251 10 0 59169 72900.00000 0 23392062.076 5530966.827 -8454697.723 10 0 59169 73800.00000 0 24264973.508 5643295.888 -5356345.988 10 0 59169 74700.00000 0 24771977.140 5579101.081 -2153612.274 10 0 59169 75600.00000 0 24885593.804 5389283.384 1091085.087 10 0 59169 76500.00000 0 24591360.113 5129416.870 4314535.000 10 0 59169 77400.00000 0 23888483.798 4857147.178 7453977.767 10 0 59169 78300.00000 0 22789939.872 4629509.736 10448337.427 10 0 59169 79200.00000 0 21322004.258 4500283.022 13239417.061 10 0 59169 80100.00000 0 19523245.564 4517490.212 15773032.886 10 0 59169 81000.00000 0 17443018.639 4721155.692 18000064.755 10 0 59169 81900.00000 0 15139524.301 5141411.516 19877402.835 10 0 59169 82800.00000 0 12677517.645 5797033.514 21368772.690 10 0 59169 83700.00000 0 10125761.411 6694468.190 22445423.925 10 0 59169 84600.00000 0 7554330.833 7827390.572 23086670.522 10 0 59169 85500.00000 0 5031881.964 9176810.792 23280273.949 10 0 59170 0.00000 0 2622996.075 10711724.204 23022663.358 10 0 59170 900.00000 0 385709.025 12390277.759 22318989.953 10 0 59170 1800.00000 0 -1630674.028 14161403.030 21183015.922 10 0 59170 2700.00000 0 -3387389.197 15966849.164 19636840.576 10 0 59170 3600.00000 0 -4857578.166 17743530.711 17710469.618 10 0 59170 4500.00000 0 -6027150.601 19426093.858 15441235.681 10 0 59170 5400.00000 0 -6895111.418 20949595.041 12873080.928 10 0 59170 6300.00000 0 -7473340.793 22252181.451 10055714.780 10 0 59170 7200.00000 0 -7785837.314 23277662.596 7043662.112 10 0 59170 8100.00000 0 -7867456.782 23977866.397 3895219.260 10 0 59170 9000.00000 0 -7762199.856 24314681.859 671336.868 10 0 59170 9900.00000 0 -7521120.440 24261702.961 -2565549.677 10 0 59170 10800.00000 0 -7199942.548 23805404.656 -5752720.482 10 0 59170 11700.00000 0 -6856485.637 22945800.941 -8828379.495 10 0 59170 12600.00000 0 -6548006.624 21696556.293 -11732847.920 10 0 59170 13500.00000 0 -6328570.524 20084544.331 -14409719.870 10 0 59170 14400.00000 0 -6246560.779 18148870.494 -16806957.944 10 0 59170 15300.00000 0 -6342434.771 15939397.878 -18877907.328 10 0 59170 16200.00000 0 -6646820.076 13514836.157 -20582208.525 10 0 59170 17100.00000 0 -7179032.997 10940471.798 -21886590.650 10 0 59170 18000.00000 0 -7946083.396 8285633.069 -22765529.301 10 0 59170 18900.00000 0 -8942209.646 5620994.537 -23201755.619 10 0 59170 19800.00000 0 -10148965.330 3015832.707 -23186605.888 10 0 59170 20700.00000 0 -11535856.072 535346.943 -22720203.929 10 0 59170 21600.00000 0 -13061501.691 -1761842.783 -21811471.839 10 0 59170 22500.00000 0 -14675276.456 -3825916.838 -20477967.814 10 0 59170 23400.00000 0 -16319359.710 -5617702.578 -18745553.286 10 0 59170 24300.00000 0 -17931111.390 -7110069.365 -16647894.995 10 0 59170 25200.00000 0 -19445672.703 -8288813.518 -14225811.076 10 0 59170 26100.00000 0 -20798682.138 -9152996.289 -11526473.617 10 0 59170 27000.00000 0 -21928991.663 -9714721.220 -8602483.302 10 0 59170 27900.00000 0 -22781267.535 -9998361.291 -5510834.596 10 0 59170 28800.00000 0 -23308364.799 -10039269.760 -2311792.637 10 0 59170 29700.00000 0 -23473374.093 -9882030.901 932295.129 10 0 59170 30600.00000 0 -23251253.423 -9578326.639 4158227.940 10 0 59170 31500.00000 0 -22629975.408 -9184511.414 7303195.791 10 0 59170 32400.00000 0 -21611141.448 -8759000.114 10306012.891 10 0 59170 33300.00000 0 -20210037.136 -8359581.467 13108315.300 10 0 59170 34200.00000 0 -18455127.316 -8040772.127 15655698.476 10 0 59170 35100.00000 0 -16387012.895 -7851324.367 17898772.285 10 0 59170 36000.00000 0 -14056894.254 -7831993.116 19794113.126 10 0 59170 36900.00000 0 -11524606.591 -8013656.518 21305095.291 10 0 59170 37800.00000 0 -8856310.098 -8415868.635 22402586.559 10 0 59170 38700.00000 0 -6121931.546 -9045904.367 23065496.028 10 0 59170 39600.00000 0 -3392463.772 -9898335.647 23281165.111 10 0 59170 40500.00000 0 -737234.530 -10955155.699 23045595.804 10 0 59170 41400.00000 0 1778743.156 -12186445.365 22363513.314 10 0 59170 42300.00000 0 4097230.859 -13551553.064 21248262.995 10 0 59170 43200.00000 0 6168934.901 -15000738.964 19721544.444 10 0 59170 44100.00000 0 7955299.017 -16477214.946 17812988.272 10 0 59170 45000.00000 0 9429847.289 -17919495.756 15559583.692 10 0 59170 45900.00000 0 10579023.684 -19263964.029 13004967.578 10 0 59170 46800.00000 0 11402495.083 -20447543.061 10198587.938 10 0 59170 47700.00000 0 11912906.569 -21410366.591 7194757.083 10 0 59170 48600.00000 0 12135100.216 -22098334.797 4051611.703 10 0 59170 49500.00000 0 12104830.678 -22465450.134 829998.853 10 0 59170 50400.00000 0 11867031.562 -22475835.368 -2407691.521 10 0 59170 51300.00000 0 11473705.279 -22105349.025 -5598725.797 10 0 59170 52200.00000 0 10981524.818 -21342729.829 -8681235.124 10 0 59170 53100.00000 0 10449247.978 -20190221.016 -11595410.065 10 0 59170 54000.00000 0 9935052.740 -18663646.841 -14284658.596 10 0 59170 54900.00000 0 9493905.921 -16791936.201 -16696705.131 10 0 59170 55800.00000 0 9175076.228 -14616111.402 -18784609.078 10 0 59170 56700.00000 0 9019897.001 -12187782.298 -20507682.999 10 0 59170 57600.00000 0 9059873.804 -9567206.778 -21832292.170 10 0 59170 58500.00000 0 9315217.767 -6820996.872 -22732519.473 10 0 59170 59400.00000 0 9793867.919 -4019564.738 -23190682.081 10 0 59170 60300.00000 0 10491045.372 -1234413.825 -23197689.129 10 0 59170 61200.00000 0 11389359.875 1464612.486 -22753232.507 10 0 59170 62100.00000 0 12459465.968 4012010.534 -21865806.094 10 0 59170 63000.00000 0 13661242.697 6349112.717 -20552552.052 10 0 59170 63900.00000 0 14945448.400 8426296.103 -18838936.183 10 0 59170 64800.00000 0 16255781.715 10204810.958 -16758257.858 10 0 59170 65700.00000 0 17531262.244 11658152.516 -14351003.379 10 0 59170 66600.00000 0 18708830.305 12772918.483 -11664055.129 10 0 59170 67500.00000 0 19726055.405 13549116.673 -8749771.951 10 0 59170 68400.00000 0 20523838.048 13999910.511 -5664959.146 10 0 59170 69300.00000 0 21048989.478 14150814.253 -2469749.086 10 0 59170 70200.00000 0 21256579.016 14038373.431 773584.524 10 0 59170 71100.00000 0 21111948.572 13708388.111 4001854.232 10 0 59170 72000.00000 0 20592308.275 13213756.179 7152202.729 10 0 59170 72900.00000 0 19687845.264 12612029.990 10163337.344 10 0 59170 73800.00000 0 18402298.692 11962791.771 12976729.947 10 0 59170 74700.00000 0 16752977.011 11324960.431 15537757.897 10 0 59170 75600.00000 0 14770217.396 10754144.879 17796763.522 10 0 59170 76500.00000 0 12496310.767 10300156.268 19710011.673 10 0 59170 77400.00000 0 9983938.353 10004784.199 21240527.325 10 0 59170 78300.00000 0 7294185.815 9899930.103 22358798.105 10 0 59170 79200.00000 0 4494218.184 10006175.406 23043329.566 10 0 59170 80100.00000 0 1654712.443 10331843.455 23281044.017 10 0 59170 81000.00000 0 -1152846.038 10872593.221 23067516.856 10 0 59170 81900.00000 0 -3858892.067 11611560.606 22407047.328 10 0 59170 82800.00000 0 -6398422.415 12520040.421 21312563.539 10 0 59170 83700.00000 0 -8713443.219 13558679.868 19805364.445 10 0 59170 84600.00000 0 -10755123.643 14679133.384 17914704.172 10 0 59170 85500.00000 0 -12485568.535 15826109.817 15677226.711 10 0 59171 0.00000 0 -13879138.657 16939726.864 13136261.575 10 0 59171 900.00000 0 -14923265.296 17958074.974 10340992.868 10 0 59171 1800.00000 0 -15618727.348 18819884.566 7345517.859 10 0 59171 2700.00000 0 -15979379.419 19467184.996 4207810.959 10 0 59171 3600.00000 0 -16031344.321 19847845.383 988612.937 10 0 59171 4500.00000 0 -15811703.010 19917890.311 -2249734.430 10 0 59171 5400.00000 0 -15366737.398 19643493.539 -5444486.532 10 0 59171 6300.00000 0 -14749799.385 19002565.359 -8533704.443 10 0 59171 7200.00000 0 -14018895.286 17985865.989 -11457450.757 10 0 59171 8100.00000 0 -13234086.885 16597596.814 -14158949.887 10 0 59171 9000.00000 0 -12454818.174 14855442.788 -16585690.463 10 0 59171 9900.00000 0 -11737280.230 12790062.177 -18690448.307 10 0 59171 10800.00000 0 -11131925.333 10444042.712 -20432209.960 10 0 59171 11700.00000 0 -10681235.435 7870365.517 -21776978.492 10 0 59171 12600.00000 0 -10417839.720 5130438.961 -22698445.371 10 0 59171 13500.00000 0 -10363061.519 2291782.558 -23178514.766 10 0 59171 14400.00000 0 -10525957.019 -574543.988 -23207669.262 10 0 59171 15300.00000 0 -10902887.648 -3396660.493 -22785169.021 10 0 59171 16200.00000 0 -11477645.522 -6104622.103 -21919079.505 10 0 59171 17100.00000 0 -12222128.045 -8633096.682 -20626126.217 10 0 59171 18000.00000 0 -13097534.282 -10923851.995 -18931378.318 10 0 59171 18900.00000 0 -14056033.459 -12927948.693 -16867766.419 10 0 59171 19800.00000 0 -15042835.523 -14607547.167 -14475443.289 10 0 59171 20700.00000 0 -15998576.211 -15937252.359 -11800999.654 10 0 59171 21600.00000 0 -16861915.252 -16904940.211 -8896550.391 10 0 59171 22500.00000 0 -17572236.886 -17512031.430 -5818709.369 10 0 59171 23400.00000 0 -18072337.151 -17773201.761 -2627473.843 10 0 59171 24300.00000 0 -18310982.822 -17715542.289 614958.672 10 0 59171 25200.00000 0 -18245232.314 -17377206.790 3845416.569 10 0 59171 26100.00000 0 -17842419.136 -16805605.195 7000997.846 10 0 59171 27000.00000 0 -17081713.169 -16055221.617 10020305.643 10 0 59171 27900.00000 0 -15955193.267 -15185151.200 12844650.360 10 0 59171 28800.00000 0 -14468385.911 -14256461.710 15419193.952 10 0 59171 29700.00000 0 -12640247.460 -13329492.760 17694013.799 10 0 59171 30600.00000 0 -10502591.281 -12461207.495 19625065.593 10 0 59171 31500.00000 0 -8098984.486 -11702708.682 21175027.099 10 0 59171 32400.00000 0 -5483161.005 -11097023.455 22314007.542 10 0 59171 33300.00000 0 -2717017.669 -10677248.972 23020110.286 10 0 59171 34200.00000 0 131723.115 -10465135.566 23279839.477 10 0 59171 35100.00000 0 2992087.229 -10470165.283 23088344.436 10 0 59171 36000.00000 0 5792553.270 -10689162.834 22449498.572 10 0 59171 36900.00000 0 8463776.504 -11106453.781 21375812.506 10 0 59171 37800.00000 0 10941221.120 -11694562.189 19888183.967 10 0 59171 38700.00000 0 13167593.614 -12415417.753 18015489.682 10 0 59171 39600.00000 0 15094978.307 -13222021.576 15794027.188 10 0 59171 40500.00000 0 16686588.438 -14060500.931 13266816.944 10 0 59171 41400.00000 0 17918061.900 -14872467.406 10482777.477 10 0 59171 42300.00000 0 18778249.180 -15597580.244 7495788.639 10 0 59171 43200.00000 0 19269461.900 -16176208.137 4363659.995 10 0 59171 44100.00000 0 19407172.325 -16552078.417 1147023.192 10 0 59171 45000.00000 0 19219176.742 -16674802.854 -2091831.186 10 0 59171 45900.00000 0 18744257.785 -16502174.015 -5290150.667 10 0 59171 46800.00000 0 18030401.486 -16002135.353 -8385929.388 10 0 59171 47700.00000 0 17132643.438 -15154341.406 -11319105.034 10 0 59171 48600.00000 0 16110634.021 -13951241.238 -14032721.371 10 0 59171 49500.00000 0 15026024.514 -12398637.841 -16474033.981 10 0 59171 50400.00000 0 13939783.655 -10515697.963 -18595537.590 10 0 59171 51300.00000 0 12909557.313 -8334409.568 -20355894.925 10 0 59171 52200.00000 0 11987182.429 -5898507.135 -21720748.714 10 0 59171 53100.00000 0 11216460.131 -3261907.435 -22663400.489 10 0 59171 54000.00000 0 10631282.336 -486718.829 -23165342.448 10 0 59171 54900.00000 0 10254191.462 2359094.733 -23216631.217 10 0 59171 55800.00000 0 10095434.890 5204299.007 -22816095.350 10 0 59171 56700.00000 0 10152555.030 7977117.342 -21971371.576 10 0 59171 57600.00000 0 10410533.292 10607988.009 -20698768.020 10 0 59171 58500.00000 0 10842482.791 13032236.044 -19022956.091 10 0 59171 59400.00000 0 11410861.202 15192547.939 -16976496.200 10 0 59171 60300.00000 0 12069152.812 17041145.434 -14599205.819 10 0 59171 61200.00000 0 12763948.605 18541566.972 -11937381.949 10 0 59171 62100.00000 0 13437335.794 19669981.919 -9042893.150 10 0 59171 63000.00000 0 14029494.737 20415982.403 -5972159.252 10 0 59171 63900.00000 0 14481391.956 20782819.825 -2785039.573 10 0 59171 64800.00000 0 14737453.689 20787076.958 456347.514 10 0 59171 65700.00000 0 14748105.205 20457790.758 3688849.268 10 0 59171 66600.00000 0 14472066.881 19835064.552 6849521.990 10 0 59171 67500.00000 0 13878308.732 18968230.149 9876867.534 10 0 59171 68400.00000 0 12947579.890 17913639.492 12712037.564 10 0 59171 69300.00000 0 11673448.084 16732180.961 15299981.161 10 0 59171 70200.00000 0 10062805.242 15486626.756 17590513.046 10 0 59171 71100.00000 0 8135818.227 14238924.255 19539281.797 10 0 59171 72000.00000 0 5925327.278 13047545.974 21108619.738 10 0 59171 72900.00000 0 3475717.868 11965009.459 22268259.171 10 0 59171 73800.00000 0 841313.506 11035670.543 22995902.421 10 0 59171 74700.00000 0 -1915643.280 10293881.293 23277636.250 10 0 59171 75600.00000 0 -4727337.978 9762588.198 23108184.263 10 0 59171 76500.00000 0 -7522962.266 9452427.436 22490993.940 10 0 59171 77400.00000 0 -10231417.281 9361353.257 21438157.838 10 0 59171 78300.00000 0 -12784031.338 9474813.369 19970171.377 10 0 59171 79200.00000 0 -15117181.120 9766462.665 18115532.335 10 0 59171 80100.00000 0 -17174709.431 10199384.539 15910189.815 10 0 59171 81000.00000 0 -18910041.072 10727768.229 13396852.958 10 0 59171 81900.00000 0 -20287910.724 11298971.907 10624172.021 10 0 59171 82800.00000 0 -21285632.391 11855885.343 7645806.778 10 0 59171 83700.00000 0 -21893858.745 12339493.539 4519399.160 10 0 59171 84600.00000 0 -22116799.422 12691534.253 1305468.902 10 0 59171 85500.00000 0 -21971889.512 12857138.191 -1933747.358 99